Rbgn^[z[y[W
メイン
   新天体発見情報
     Comet C/2025 F1 (ATLAS)
投稿するにはまず登録を

スレッド表示 | 新しいものから 前のトピック | 次のトピック | 下へ
投稿者 スレッド
佐藤裕久
投稿日時: 2025-4-8 16:39
モデレータ
登録日: 2005-6-12
居住地: 日本
投稿: 2689
オンライン
Comet C/2025 F1 (ATLAS)

A. Fitzsimmonsの通報によると、3月22日UT、チリ Rio Hurtadoにある小惑星地球衝突最終警報システム
Asteroid Terrestrial-Impact Last Alert System (ATLAS)調査プログラムのコースに0.5-m Schmidt 反
射望遠鏡で得た、4枚の30-秒CCD画像上に発見された高速移動天体が、拡散した50"のコマのある彗星に
見えた。
小惑星センターのPCCP webpageに公表後、S. Deen (Simi Valley, カリフォルニア州, 米国)は、3月
23.0日UT、A. SchnabelとD. Ruhelaがチリ Rio Hurtadoにある0.43-m 反射望遠鏡で得たCCD画像に非常
に集光した恒星に近いコマと、p.a.125-130°に約4".5の尾があり、より淡い円の靄が約5"四方に広がっ
ている。3月24.0日に得た追加画像は、Rフィルターで同様の外観を示しているが、Gフィルターや特に
Bフィルターでは、約16"のコマがますます優位になっている。
佐藤英貴氏(東京都文京区)は、3月24.0日、チリ Rio Hurtadoにある0.51-m f/6.8 アストログラフの遠隔
操作で得た、10-秒CCD露出24枚のスタックから、強く集光した5"のコマが見えるが、尾はなかった。2".8
の円形範囲で測定した光度は18.9等であった。

彗星機能の報告は次のとおり、

OC   Date        Reporter            Coma    Tail   PA   Comet     Date
                                                        (T/P)   Reported
W68  2025-03-22  A. Fitzsimmons     50"                   T   2025-03-22.44
807  2025-03-23  T. Linder           5"        8"  110    T   2025-03-23.10
X09  2025-03-23  S. Deen             1".2      4"  125    T   2025-03-23.03
X07  2025-03-24  H. Sato             5"                   T   2025-03-24.39

発見位置は次のとおり(PCCP A11kNtD)、

     2025 UT             R.A. (2000) Decl.       Mag.
     Mar. 22.03985    3 58 36.25   -43 38 45.2   19.1
          22.05050    3 58 39.25   -43 37 40.6   19.3
          22.06084    3 58 41.77   -43 36 34.4   19.1
          22.06412    3 58 42.70   -43 36 14.4   19.2

MPCの楕円軌道要素、位置推算表は次のとおり、

Orbital elements:
    C/2025 F1 (ATLAS)                                                           
Epoch 2025 May 5.0 TT = JDT 2460800.5                                           
T 2025 Apr. 20.47691 TT                                 Veres                   
q   1.0699421            (2000.0)            P               Q                  
z  +0.0034886      Peri.  334.23529     -0.60712987     +0.01477396             
 +/-0.0053107      Node   122.70755     +0.78751513     +0.14442945             
e   0.9962674      Incl.  109.23525     -0.10589261     +0.98940480             
From 40 observations 2025 Mar. 22-Apr. 1, mean residual 0".5.                   
                                                                                
Ephemeris:
Date    TT    R. A. (2000) Decl.     Delta      r    Elong.  Phase   m1
2025 03 02    01 31 20.7 -69 33 49   1.3579  1.3384    67.4    43.1  19.9
...
2025 03 17    03 33 16.8 -51 55 08   1.1330  1.2105    69.0    50.1  19.1
...
2025 03 25    04 11 10.2 -38 28 01   1.0843  1.1556    67.3    52.8  18.8
...
2025 03 31    04 32 40.1 -27 41 53   1.0887  1.1222    64.9    53.7  18.7
2025 04 01    04 35 49.7 -25 54 47   1.0929  1.1174    64.4    53.7  18.7
2025 04 02    04 38 53.1 -24 08 25   1.0980  1.1128    63.9    53.8  18.7
...
2025 04 08    04 55 20.7 -13 55 37   1.1474  1.0898    60.5    53.1  18.7
...
2025 04 16    05 13 24.9 -01 57 25   1.2541  1.0725    55.4    50.4  18.8
...
2025 05 01    05 40 00.0 +14 53 53   1.5245  1.0841    45.2    41.3  19.3

(MPEC 2025-G03、CBET 5534)

スレッド表示 | 新しいものから 前のトピック | 次のトピック | トップ

投稿するにはまず登録を
 
© 1999 Tsutomu Seki.